Location: Fr�thun
(50.9173°N, 1.8250°E)
Time: 20:12:39
(UTC+00:00)

Daily predictions for brighter satellites

Satellite Brightness Start Highest point End
(mag) Time Altitude Azimuth Time Altitude Azimuth Time Altitude Azimuth
COSMOS 2455 4.0 16:21:59 10° NW 16:27:47 50° WSW 16:33:34 10° S
USA 267 3.4 16:22:05 10° E 16:28:30 62° NNE 16:34:56 10° WNW
Cosmos 2322 3.8 16:23:32 10° SSW 16:29:08 68° ESE 16:34:48 10° NNE
Cosmos 540 Rocket 3.7 16:24:47 10° S 16:29:47 55° ESE 16:34:48 10° NNE
Cosmos 2369 Rocket 3.9 16:27:44 10° N 16:30:46 14° NNE 16:33:47 10° ENE
Cosmos 1766 Rocket 4.2 16:27:49 10° NNW 16:32:14 63° W 16:36:34 10° S
NOSS 2-1 (E) 4.2 16:27:56 10° NW 16:32:45 73° NE 16:39:34 10° SE
Cosmos 1844 Rocket 4.4 16:27:58 10° NW 16:33:12 39° WSW 16:38:24 10° S
SJ 16-02 4.3 16:32:10 10° NW 16:35:27 21° W 16:38:45 10° SW
Okean-O 4.4 16:33:52 10° ENE 16:35:41 12° NE 16:37:31 10° NNE
Cosmos 1743 Rocket 3.8 16:32:44 10° N 16:37:06 48° ENE 16:41:25 10° SSE
Cosmos 841 Rocket 3.6 16:32:54 10° S 16:38:03 63° ESE 16:43:13 10° NNE
CORIOLIS 4.4 16:35:05 10° SE 16:40:14 47° ENE 16:45:25 10° N
Envisat 3.0 16:35:52 10° SSE 16:40:56 78° ENE 16:46:04 10° NNW
Cosmos 1408 Rocket 3.7 16:39:13 10° NNW 16:43:40 84° WSW 16:48:01 10° S
H-2A R/B 2.5 16:39:28 10° SSE 16:43:49 79° ENE 16:48:02 10° NNW
H-2A R/B 3.1 16:41:31 10° S 16:45:18 72° WSW 16:49:12 10° NNW
Cosmos 2315 Rocket 4.5 16:41:07 10° SSW 16:47:18 66° WNW 16:53:35 10° N
H-2A R/B 3.7 16:45:12 10° E 16:47:48 14° NE 16:50:23 10° NNE
Okean O Rocket 1.7 16:44:02 10° SE 16:48:14 50° ENE 16:52:29 10° N
Nadezhda 1 Rocket 4.4 16:42:24 10° SSE 16:48:22 45° E 16:54:24 10° NNE
Sich 1 4.0 16:45:04 10° N 16:48:51 27° ENE 16:52:36 10° SE
Cosmos 1842 Rocket 3.5 16:47:44 10° S 16:52:02 66° E 16:56:21 10° NNE
Cosmos 2333 4.3 16:46:22 10° SSW 16:52:03 83° WNW 16:57:45 10° NNE
Aureole 2 Rocket 3.1 16:50:08 10° NW 16:52:46 46° WSW 16:55:30 10° S
Cosmos 405 Rocket 2.7 16:49:33 10° N 16:53:23 59° ENE 16:57:16 10° SSE
EP 1 4.4 16:52:25 10° SW 16:55:18 73° NW 16:57:36 13° NE
Cosmos 2154 Rocket 4.0 16:50:12 10° N 16:56:30 63° ENE 17:02:47 10° SSE
Cosmos 1805 Rocket 4.0 16:53:07 10° N 16:57:22 40° ENE 17:01:34 10° SE
Cosmos 1814 Rocket 4.0 16:55:35 10° SSW 17:00:54 74° ESE 17:06:14 10° NNE
YAOGAN 6 2.7 16:57:27 10° SSE 17:01:07 83° WSW 17:04:46 10° NNW
Cosmos 2341 Rocket 4.4 16:57:50 10° N 17:03:45 42° ENE 17:09:40 10° SE
Cosmos 1943 Rocket 3.3 17:00:00 10° NNW 17:04:25 24° NE 17:07:55 14° E
SMAP 3.0 17:02:20 10° SSE 17:06:59 83° ENE 17:11:41 10° NNW
Cosmos 2322 Rocket 3.8 17:02:10 10° WSW 17:07:04 29° NW 17:11:59 10° NNE
Cosmos 1570 Rocket 4.1 17:02:10 10° SSW 17:07:29 87° WNW 17:12:49 10° NNE
Radarsat 4.5 17:02:47 10° SSE 17:07:58 75° ENE 17:13:11 10° NNW
Helios 1A Rocket 4.2 17:05:07 10° ESE 17:08:01 19° ENE 17:10:56 10° NNE
USA 281 3.5 17:02:39 10° ESE 17:08:46 44° NE 17:14:56 10° NNW
SL-16 R/B 3.7 17:05:45 10° SE 17:08:48 15° E 17:09:55 14° E
CZ-4C R/B 3.4 17:09:36 10° N 17:13:12 70° WNW 17:16:49 10° SSW
ARGOS 4.5 17:15:45 17° ENE 17:17:07 18° NE 17:20:40 10° NNE
CREW DRAGON DEMO-1 DEB 2.7 17:15:49 10° W 17:18:49 85° N 17:20:29 24° E
Cosmos 2285 Rocket 4.5 17:12:53 10° NNW 17:18:52 39° NE 17:24:47 10° ESE
NOSS 0 Rocket 4.1 17:12:48 10° S 17:18:54 57° ESE 17:24:40 12° NE
Cosmos 1606 3.4 17:16:56 10° SSE 17:20:26 32° E 17:23:04 15° NE
Cosmos 405 3.4 17:16:58 10° SSW 17:20:27 63° WNW 17:23:55 10° N
Cosmos 389 Rocket 3.4 17:17:33 10° SSE 17:20:27 26° E 17:21:16 23° ENE
Feng Yun 1-1 Rocket 4.4 17:14:48 10° SE 17:20:28 57° ENE 17:26:01 10° N
Cosmos 2333 Rocket 2.6 17:16:19 10° SW 17:21:59 67° WNW 17:27:39 10° NNE
CZ-2C R/B 3.7 17:17:46 10° ESE 17:22:10 30° ENE 17:26:24 10° N
Cosmos 2084 Rocket 4.4 17:19:16 10° WSW 17:23:10 39° NNW 17:26:26 14° NNE
H-2A R/B 2.0 17:20:02 10° NNE 17:24:11 81° WNW 17:28:23 10° SSW
SKYMED 2 4.4 17:22:23 16° NE 17:25:04 29° E 17:28:52 10° SSE
Landsat 5 4.1 17:22:48 10° N 17:27:04 61° WNW 17:31:27 10° SSW
COSMOS 2428 2.9 17:21:28 10° SW 17:27:13 76° WNW 17:33:00 10° NNE
Cosmos 1862 3.9 17:25:45 10° NNW 17:29:45 61° W 17:33:43 10° S
Cosmos 724 4.3 17:24:15 10° SW 17:30:09 89° NW 17:35:18 15° NE
Cosmos 1818 3.9 17:25:21 10° NW 17:30:49 69° SW 17:36:14 10° SSE
Cosmos 2150 Rocket 4.5 17:26:13 10° NNW 17:31:20 63° WSW 17:36:24 10° S
SL-8 Rocket 4.1 17:25:44 10° N 17:31:46 50° ENE 17:37:49 10° SSE
ADEOS Rocket 4.0 17:24:25 10° N 17:31:52 65° WNW 17:39:33 10° SSW
Cosmos 2278 Rocket 2.8 17:28:20 10° NW 17:33:56 61° WSW 17:39:31 10° SSE
Cosmos 1633 Rocket 3.4 17:30:56 10° N 17:35:05 39° ENE 17:39:12 10° SE
USA 215 3.5 17:32:16 20° ENE 17:36:50 55° SE 17:43:14 10° SW
Cosmos 2181 Rocket 4.4 17:32:33 10° SSE 17:38:32 42° E 17:44:29 10° NNE
CZ-4 R/B 1.9 17:37:52 23° ESE 17:39:36 34° ENE 17:43:14 10° N
SAR-Lupe-4 4.1 17:40:59 34° E 17:41:11 34° E 17:44:29 10° SSE
Meteor 1-25 Rocket 4.3 17:35:54 10° N 17:41:21 51° ENE 17:46:49 10° SSE
CZ-2D R/B 3.2 17:43:26 10° SSE 17:47:09 54° ENE 17:50:55 10° N
Cosmos 2360 Rocket 4.0 17:44:07 10° W 17:48:46 26° NW 17:53:26 10° NNE
Cosmos 1125 Rocket 4.0 17:43:55 10° NNW 17:49:04 63° WSW 17:54:11 10° S
BREEZE-M DEB (TANK) 3.7 17:47:27 10° SSW 17:48:48 18° S 17:48:48 18° S
Meteor 2-12 Rocket 4.4 17:43:04 10° N 17:49:16 89° E 17:55:25 10° S
Cosmos 1356 3.2 17:47:20 10° NNW 17:50:47 87° ENE 17:54:12 10° SSE
IRS-1C Rocket 4.0 17:47:26 10° SSE 17:52:43 77° ENE 17:58:01 10° NNW
Cosmos 44 3.6 17:47:34 10° NW 17:52:43 57° NE 17:55:25 28° ESE
ERS-2 2.0 17:50:53 24° NNE 17:53:00 77° ESE 17:56:39 10° SSW
DEBRIS 4.5 17:35:31 10° W 17:53:40 82° S 17:56:22 30° E
Cosmos 2221 4.1 17:49:43 10° SW 17:53:43 35° WNW 17:57:43 10° N
Cosmos 1939 Rocket 2.7 17:50:09 10° SSE 17:54:01 90° ENE 17:57:56 10° NNW
Cosmos 2219 Rocket 3.2 17:51:47 10° WSW 17:57:11 44° NW 18:02:22 11° NNE
SAR-Lupe-1 4.2 17:58:34 50° ESE 17:58:34 50° ESE 18:01:55 10° S
ISS -3.1 17:55:52 10° SW 17:59:04 40° SSE 17:59:05 40° SSE
CZ-4B R/B 1.4 18:00:04 37° N 18:01:05 68° WNW 18:04:08 10° SSW
SL-16 R/B 4.5 18:00:39 10° WNW 18:03:51 15° NNW 18:07:04 10° N
Cosmos 2237 Rocket 2.1 17:59:16 10° SSW 18:04:53 90° SE 18:08:37 22° NNE
YAOGAN 1 2.6 18:03:51 30° SE 18:05:44 55° ENE 18:10:00 10° N
Cosmos 1470 Rocket 4.1 18:05:16 10° N 18:08:28 40° NNE 18:08:28 40° NNE
Okean-O 2.5 18:07:00 10° SSE 18:11:24 74° ENE 18:15:50 10° NNW
USA 267 3.4 18:05:49 14° SE 18:11:31 70° SW 18:18:03 10° WNW
COSMO-SKYMED 1 2.4 18:10:59 27° NNE 18:13:20 83° ESE 18:17:40 10° SSW
SL-24 R/B 3.8 18:13:03 54° NE 18:13:51 70° ESE 18:17:42 10° S
USA 81 4.0 18:09:57 10° N 18:15:18 89° E 18:20:35 10° S
Cosmos 2218 Rocket 3.8 18:09:24 10° N 18:15:36 82° E 18:21:46 10° SSE
Cosmos 2369 Rocket 2.6 18:11:03 10° NNW 18:16:27 41° NE 18:16:39 41° NE
CSL-04 Rocket 3.6 18:18:44 42° ESE 18:20:11 55° ENE 18:25:24 10° N
Cosmos 1980 4.0 18:17:15 10° SW 18:22:54 67° WNW 18:26:25 24° NNE
Okean O Rocket 4.2 18:21:34 10° SW 18:24:53 21° W 18:28:14 10° NW
H-2A R/B 2.0 18:23:36 29° SE 18:26:21 67° ENE 18:31:32 10° N
Cosmos 2366 rocket 3.9 18:21:49 10° N 18:28:04 86° W 18:34:15 10° S
PSLV R/B 4.0 18:30:53 65° S 18:30:53 65° S 18:34:21 10° SSW
Cosmos 1933 3.4 18:27:15 10° SSW 18:31:18 76° WNW 18:31:27 74° NW
Meteor 1-14 Rocket 4.2 18:28:24 10° N 18:34:20 73° ENE 18:38:09 23° SSE
Cosmos 1932 4.5 18:28:52 10° SW 18:35:26 86° NW 18:37:56 41° NE
Cosmos 2297 4.0 18:34:21 10° NW 18:40:00 66° WSW 18:44:22 17° SSE
Cosmos 783 Rocket 4.4 18:37:15 10° SSW 18:42:30 78° ESE 18:42:30 78° ESE
Helios 1A Rocket 3.6 18:39:38 15° S 18:42:51 53° W 18:46:49 10° NNW
Cosmos 1151 Rocket 3.4 18:43:01 10° SSW 18:46:45 59° WSW 18:46:45 59° WSW
SL-24 DEB 4.4 18:42:47 10° N 18:47:34 71° W 18:52:16 10° SSW
Cosmos 1943 Rocket 2.0 18:43:20 10° NNW 18:48:54 88° WSW 18:49:30 72° SSE
Meteor 1-26 Rocket 4.3 18:44:09 10° S 18:50:10 90° W 18:53:29 29° NNE
Cosmos 1328 Rocket 4.4 18:45:56 10° SSW 18:48:55 43° SSW 18:48:55 43° SSW
SL-16 R/B 2.0 18:46:21 10° SSW 18:51:51 79° SE 18:51:51 79° SE
USA 281 4.0 18:46:51 10° S 18:53:12 51° WSW 18:59:37 10° NW
MOS 1 Rocket 3.5 18:53:31 79° N 18:53:53 89° WNW 18:59:21 10° SSW
ARGOS 3.2 18:57:16 71° N 18:57:16 71° N 19:02:06 10° NNW
CZ-2C R/B 3.9 18:56:58 10° S 19:01:55 45° W 19:06:40 10° NNW
Cosmos 2333 Rocket 4.4 19:03:20 10° WNW 19:07:22 19° NNW 19:10:10 14° N
Cosmos 1867 3.8 19:03:31 10° SW 19:08:14 66° WSW 19:08:14 66° WSW
CZ-4 R/B 3.4 19:13:55 24° WSW 19:14:42 26° W 19:18:04 10° NW
USA 215 3.3 19:19:37 69° N 19:20:02 71° NNW 19:26:32 10° WSW
Cosmos 1821 Rocket 4.3 19:24:38 10° NNW 19:30:01 62° NW 19:30:01 62° NW
Cosmos 2237 Rocket 4.1 19:45:16 10° W 19:49:44 24° NW 19:50:28 23° NNW
Cosmos 2369 Rocket 3.8 19:55:10 10° NW 19:58:28 31° WNW 19:58:28 31° WNW
H-2A R/B 4.3 20:04:13 18° WSW 20:06:13 21° W 20:10:13 10° NW
